Simultaneous Nadir Overpasses (SNOs) Predictions

Prediction of SNOs between LANDSAT-8 and METOP-B Satellite Orbit:

Table of predicted SNOs for the next 14.0 days since TLE Epoch: 9/30/2023
Index Date (LANDSAT-8) Time (LANDSAT-8) Lat,Lon (LANDSAT-8) SZA (LANDSAT-8 ) Date (METOP-B) Time (METOP-B) Lat,Lon (METOP-B) SZA (METOP-B ) Distance(km) Time Diff (sec)
1 09/30/2023 22:21:25 -81.24, 66.48 93.33 09/30/2023 22:20:38 -81.24, 66.55 93.35 1.26 47
2 09/30/2023 23:10:51 81.24,-125.77 86.70 09/30/2023 23:11:18 81.24,-125.86 86.70 1.61 27
3 10/03/2023 17:55:39 -81.24, 132.97 92.22 10/03/2023 17:54:58 -81.23, 132.84 92.26 2.34 41
4 10/03/2023 18:45:05 81.25, -59.31 87.81 10/03/2023 18:45:37 81.25, -59.22 87.84 1.56 32
5 10/06/2023 13:29:54 -81.23,-160.81 91.15 10/06/2023 13:29:19 -81.23,-160.98 91.18 2.94 35
6 10/06/2023 14:19:19 81.25, 7.26 88.93 10/06/2023 14:19:57 81.25, 7.32 88.96 0.97 38
7 10/09/2023 09:04:07 -81.24, -94.10 90.02 10/09/2023 09:03:38 -81.24, -94.13 90.04 0.67 29
8 10/09/2023 09:53:33 81.24, 73.57 90.00 10/09/2023 09:54:18 81.24, 73.38 90.00 3.32 45
9 10/12/2023 04:38:19 -81.24, -27.65 88.94 10/12/2023 04:37:57 -81.24, -27.77 88.97 1.98 22



Historial Predications of SNOs between LANDSAT-8 and METOP-B
